Temp
88 89 92 91 90 66 72 77 65 68 80 77 64 67 73 70 64 58 72 67 71 74 76 80 80 81 81 82 83 84 82 82 81 81 83 84 83 83 83 83 81 82 82 82 83 82 82 82 81 81 79 79 78 78 77 76 76 76 76 76 75 75 74
87 93 92 93 93 90 79 68 71 84 88 84 69 59 61 58 53 55 68 62 61 65 57 71 78 78 79 80 80 84 83 82 81 81 81 83 82 83 83 83 82 83 83 82 83 83 83 83 82 81 79 79 79 78 78 76 76 75 75 76 75 75 74
89 94 92 88 90 95 79 79 89 76 61 64 67 66 53 53 52 53 59 67 66 64 63 72 70 75 74 76 78 79 79 80 78 79 82 83 82 83 83 83 81 82 82 82 83 83 84 83 82 81 80 80 79 78 78 78 76 76 76 77 76 75 75
88 89 85 70 75 86 92 89 84 88 76 66 61 63 60 56 50 55 54 65 54 66 67 73 74 76 76 77 77 79 81 81 79 80 81 82 80 81 83 83 82 82 83 84 84 84 83 82 82 81 81 81 80 79 78 77 77 76 76 75 75 74 75
87 73 78 75 75 69 75 78 73 78 77 79 76 70 67 54 51 49 52 51 57 64 73 75 74 75 77 77 76 76 78 81 82 82 83 82 82 79 82 82 82 83 84 85 85 85 84 83 83 83 82 82 81 80 79 78 76 76 76 75 75 74 74
74 75 85 85 85 83 76 72 69 71 69 65 60 55 76 70 58 47 54 53 58 72 79 74 78 80 80 79 78 76 80 80 79 81 82 81 79 79 82 83 84 85 84 84 85 84 84 83 83 83 82 82 81 80 80 80 79 78 77 75 74 74 74
76 83 88 92 91 89 86 82 76 80 75 74 65 49 58 71 68 73 59 54 59 76 76 76 78 81 82 81 81 80 79 79 82 81 84 82 82 81 83 85 85 85 84 84 84 82 82 81 82 82 81 82 81 81 80 80 79 78 80 77 76 75 74
83 87 90 90 92 90 84 84 85 82 77 76 69 60 64 63 64 61 61 54 61 71 72 78 79 78 81 78 78 78 79 79 81 81 79 80 80 81 83 85 85 84 84 83 82 80 80 80 80 81 81 81 81 81 81 81 79 79 79 78 77 75 75
65 74 77 81 88 87 78 74 78 83 84 83 80 76 68 64 64 64 57 49 59 71 75 75 78 80 82 81 81 78 78 79 79 79 78 78 78 80 81 82 83 82 82 81 80 80 80 80 80 80 80 81 81 80 82 82 81 81 80 79 78 77 76
50 52 51 53 66 73 76 81 81 80 81 79 72 66 62 54 58 64 54 57 62 70 73 75 75 75 76 77 80 82 78 78 78 77 77 77 78 78 80 78 81 81 80 80 80 80 80 80 80 79 80 81 81 81 81 83 82 81 80 80 79 77 77
53 55 58 75 78 75 72 78 79 81 83 81 75 66 60 56 50 59 52 64 61 67 70 72 75 76 75 76 77 77 77 76 76 77 76 78 78 77 79 77 79 79 78 79 80 79 80 80 80 79 80 80 81 80 81 83 82 81 79 79 78 77 78
68 73 75 82 83 76 78 79 79 81 80 80 77 68 66 61 59 48 54 63 65 67 71 72 73 75 74 75 75 77 78 78 78 75 75 79 77 77 77 76 77 77 78 78 78 78 79 79 80 80 80 81 80 80 81 82 82 82 80 79 78 77 77
77 80 80 83 82 83 82 82 82 80 81 78 75 66 74 68 63 58 61 64 66 70 74 75 74 76 76 76 75 76 76 77 76 75 76 76 77 77 77 76 77 77 77 77 78 78 78 79 78 79 80 80 80 80 81 81 82 81 79 78 77 77 76
78 78 81 83 81 80 80 80 80 80 80 79 79 78 77 73 63 68 68 65 68 74 75 78 78 77 78 79 79 77 77 78 76 76 75 77 77 77 77 76 76 77 78 77 77 78 77 78 78 79 79 80 80 80 80 81 80 79 78 77 76 76 75
70 77 81 82 80 77 75 78 80 81 80 79 78 80 80 76 70 71 70 65 65 74 80 80 76 77 78 77 78 78 75 76 77 76 76 75 76 77 77 77 77 76 77 77 77 77 77 78 78 79 79 80 80 81 80 80 78 78 78 76 76 76 74
64 75 77 80 81 80 78 77 78 80 80 76 78 74 77 73 68 70 67 62 64 75 77 77 75 75 76 75 75 74 73 75 75 74 75 75 76 75 77 77 77 76 76 76 76 77 78 78 79 79 79 79 79 77 76 76 77 76 77 76 75 74 74
61 72 77 78 79 76 71 71 77 79 79 77 79 80 80 78 80 67 64 61 69 71 75 75 71 75 72 72 73 73 74 73 75 75 76 76 76 75 74 76 77 77 78 78 77 78 79 80 80 80 80 76 68 66 67 67 69 70 73 76 74 74 74
61 72 75 76 65 55 53 72 79 77 75 74 73 73 76 78 76 69 73 75 75 76 75 73 71 74 74 74 74 75 73 73 75 76 76 77 78 78 78 76 78 78 78 79 80 80 80 80 80 79 73 66 67 69 70 72 71 73 74 74 75 74 74
59 63 64 56 52 54 68 76 80 82 81 79 74 75 74 78 76 76 75 75 75 73 74 74 74 74 75 77 78 77 77 75 72 72 74 74 75 75 75 75 75 77 78 78 77 76 77 78 74 69 68 69 69 70 72 72 73 72 72 71 72 74 74
63 61 58 48 50 64 73 77 80 81 80 77 75 69 73 74 77 73 74 76 77 76 75 75 74 74 75 75 73 76 78 79 77 76 76 75 76 77 77 76 76 75 78 78 77 76 77 74 71 69 69 70 70 70 72 72 70 70 70 71 72 73 73
57 58 55 55 63 66 70 72 74 75 69 70 67 61 64 75 76 75 73 74 75 74 74 75 76 77 78 72 72 78 81 76 79 81 78 82 79 80 78 79 77 77 79 79 78 75 75 73 69 69 70 71 70 69 68 68 67 68 69 71 73 74 74
61 55 53 54 56 52 59 66 76 82 84 83 77 69 63 72 75 76 74 72 73 74 76 76 76 73 68 66 71 78 82 81 79 82 83 84 81 79 79 79 78 78 78 79 77 75 75 73 70 70 70 69 68 68 68 68 68 68 68 71 73 75 75
63 58 53 51 51 56 67 69 77 82 83 83 77 69 57 68 73 77 78 75 73 74 75 74 73 68 61 66 72 77 79 84 84 81 81 82 81 79 79 79 78 78 77 78 77 76 75 71 70 71 70 68 66 67 69 69 69 69 70 73 74 75 75
59 58 54 52 60 60 66 76 77 81 82 84 72 55 50 68 71 74 77 77 76 76 76 75 71 68 63 67 70 81 83 82 81 77 78 78 79 79 79 79 78 76 77 77 76 75 73 70 71 71 69 66 66 69 69 70 69 69 72 74 76 77 76
58 59 57 61 62 68 73 76 80 80 82 73 57 46 58 69 72 76 76 77 77 74 74 71 68 73 74 73 76 82 83 82 80 80 80 79 80 79 80 79 79 76 76 77 76 75 72 71 71 70 68 67 67 69 69 69 69 71 74 75 75 74 74
58 58 57 56 61 65 74 76 80 81 76 58 54 64 69 71 73 76 78 76 76 75 74 73 72 75 79 80 81 81 82 79 77 78 77 78 79 79 77 77 78 77 77 76 77 75 72 72 72 71 69 68 67 68 69 69 71 74 75 75 75 74 74
61 57 52 46 45 58 79 78 73 73 62 60 65 69 74 78 75 75 75 76 75 75 73 75 75 78 79 80 80 79 78 76 76 76 76 74 75 75 74 75 77 78 75 72 72 74 74 74 72 72 71 69 69 70 70 72 75 77 78 77 76 76 75
51 52 47 46 60 64 79 74 60 68 69 70 71 72 70 74 74 73 72 74 75 76 75 75 76 77 76 76 76 75 76 77 76 75 75 75 74 74 77 75 71 71 68 67 68 70 73 75 74 73 72 70 71 71 72 76 77 77 77 76 76 74 74
57 51 58 65 69 72 77 75 73 74 76 77 76 73 72 72 73 74 74 73 76 76 76 75 74 74 75 73 76 75 76 75 76 74 75 73 72 71 71 70 69 70 69 67 67 68 71 75 75 75 75 74 73 73 73 75 76 76 75 74 73 73 72
65 68 67 66 68 72 76 79 78 77 77 77 77 75 72 71 74 75 73 74 75 75 75 73 72 73 73 73 74 74 73 72 73 72 71 69 70 70 69 68 69 69 69 68 68 66 71 77 76 75 75 76 74 73 75 75 76 76 74 72 71 70 70
53 44 63 64 62 63 73 76 78 79 79 76 75 73 73 73 75 76 75 73 74 75 75 74 72 73 74 73 71 69 68 69 69 70 69 68 68 68 67 68 69 68 68 68 68 68 70 76 77 78 77 76 75 75 75 76 76 75 73 72 71 69 69
56 54 59 65 70 70 73 73 72 73 75 76 75 74 73 74 75 75 75 76 76 77 76 74 71 72 74 71 70 68 67 67 67 66 67 66 66 67 68 67 68 68 68 67 66 66 68 75 77 77 78 77 77 77 78 79 77 74 72 71 71 70 69
61 64 65 64 66 72 73 74 73 72 73 73 74 75 76 76 75 74 75 77 76 76 74 73 71 71 71 72 72 70 68 67 67 66 67 66 66 66 67 67 67 65 65 66 66 66 67 74 76 76 76 79 82 78 78 76 73 72 71 72 72 71 70
54 54 57 61 55 57 66 72 74 73 74 75 74 74 75 74 72 73 73 74 75 76 76 75 73 70 71 72 71 72 69 68 66 66 66 66 67 67 67 69 69 68 68 67 67 68 67 71 74 75 75 76 79 80 77 75 73 72 72 72 71 71 70
52 63 67 66 63 63 68 70 72 73 73 73 73 71 71 72 72 74 72 72 72 72 74 75 75 71 72 73 73 71 70 67 67 67 67 67 67 68 69 69 69 68 68 68 65 64 64 66 68 68 71 75 74 76 75 75 74 72 71 69 68 71 69
68 71 69 69 65 63 68 71 72 72 72 73 73 74 73 72 72 73 73 72 71 71 72 74 76 74 72 73 73 71 68 68 67 68 69 69 70 71 72 71 69 68 68 67 67 65 65 67 70 72 74 73 73 75 74 73 72 70 69 68 67 66 67
65 69 70 70 69 71 72 72 71 72 73 73 72 72 72 73 74 73 72 70 71 73 72 73 75 74 73 73 72 69 69 70 69 70 70 70 72 72 73 72 69 69 70 70 69 68 68 70 71 72 71 71 72 75 72 72 71 70 69 68 68 68 67
MSLP
1001.03 1001.43 1000.79 1001.27 1001.07 1009.39 1005.03 1004.43 1008.27 1006.87 1003.83 1006.11 1009.35 1009.75 1008.75 1009.43 1011.27 1013.07 1008.23 1008.79 1007.75 1005.51 1004.83 1004.35 1003.95 1004.43 1005.19 1005.31 1005.63 1005.79 1006.31 1006.43 1006.79 1007.43 1007.31 1007.27 1007.67 1008.03 1008.23 1008.51 1008.87 1009.07 1009.27 1009.43 1009.59 1010.03 1010.43 1010.67 1010.99 1011.27 1011.51 1011.67 1012.07 1012.63 1013.03 1013.35 1013.51 1013.63 1013.75 1013.79 1013.87 1013.95 1014.23
1000.79 999.39 999.87 1000.39 1000.43 1000.87 1004.15 1007.07 1005.87 1002.91 1002.35 1004.27 1008.39 1013.11 1011.67 1012.63 1014.59 1012.83 1009.11 1010.91 1010.11 1010.43 1011.55 1005.11 1005.47 1006.19 1006.19 1005.67 1005.63 1005.59 1005.95 1006.27 1006.95 1007.19 1007.23 1007.19 1007.43 1007.59 1007.51 1007.67 1008.03 1008.23 1008.55 1008.95 1009.19 1009.43 1009.63 1009.95 1010.27 1010.71 1011.07 1011.27 1011.63 1012.07 1012.55 1013.07 1013.35 1013.59 1013.59 1013.63 1013.71 1013.67 1014.03
1000.71 999.19 1000.35 1001.87 1000.43 999.31 1003.27 1004.87 1001.03 1006.63 1010.87 1011.59 1008.35 1010.59 1014.95 1015.15 1015.47 1013.63 1010.71 1009.39 1009.39 1008.91 1009.07 1006.79 1007.27 1006.55 1006.47 1006.07 1005.95 1006.19 1006.71 1006.79 1007.07 1007.07 1006.95 1006.75 1006.95 1007.39 1007.71 1007.79 1008.19 1008.31 1008.47 1008.67 1008.79 1009.07 1009.15 1009.39 1009.63 1010.03 1010.55 1011.03 1011.55 1011.99 1012.23 1012.55 1012.87 1012.95 1013.15 1013.35 1013.39 1013.35 1013.55
1000.51 1000.51 1001.99 1007.19 1004.75 1001.15 1000.19 1000.59 1003.11 1002.15 1005.03 1008.03 1010.63 1009.43 1009.63 1010.47 1014.27 1013.91 1012.71 1009.75 1011.55 1008.31 1007.07 1005.95 1006.63 1005.71 1005.47 1005.83 1006.59 1006.67 1006.51 1006.31 1006.47 1006.71 1006.91 1006.95 1007.31 1007.47 1007.47 1007.55 1007.79 1007.91 1007.95 1008.07 1008.27 1008.63 1008.99 1009.23 1009.55 1009.87 1010.31 1010.79 1011.35 1011.71 1012.15 1012.51 1012.75 1012.87 1013.11 1013.35 1013.39 1013.47 1013.43
1000.75 1005.19 1003.19 1005.19 1004.43 1005.59 1004.63 1004.51 1005.43 1004.83 1005.15 1003.07 1004.83 1006.35 1007.83 1010.35 1012.19 1012.75 1013.55 1014.35 1011.91 1008.31 1005.51 1005.35 1005.83 1005.59 1005.19 1005.23 1006.47 1006.39 1006.27 1005.83 1005.79 1006.03 1006.15 1006.39 1006.63 1007.23 1007.19 1007.31 1007.55 1007.71 1007.75 1007.83 1007.87 1007.95 1008.23 1008.63 1009.07 1009.55 1009.99 1010.43 1010.83 1011.31 1011.91 1012.23 1012.63 1012.87 1013.07 1013.19 1013.35 1013.39 1013.31
1004.39 1003.55 1001.15 1001.43 1002.03 1002.35 1003.47 1004.23 1005.67 1004.79 1006.27 1007.79 1009.79 1011.07 1005.95 1006.99 1009.59 1012.39 1012.59 1015.39 1011.39 1007.03 1004.43 1005.27 1005.19 1004.63 1004.67 1004.39 1004.79 1005.51 1005.35 1005.83 1005.99 1005.83 1005.95 1006.07 1006.63 1006.59 1006.71 1006.87 1006.99 1007.23 1007.35 1007.43 1007.51 1007.75 1008.07 1008.67 1009.15 1009.51 1009.71 1010.11 1010.59 1011.03 1011.39 1011.83 1012.27 1012.55 1012.71 1012.99 1013.19 1013.27 1013.23
1003.71 1001.67 1000.27 999.11 999.55 1000.23 1001.19 1002.07 1003.95 1002.67 1003.87 1004.83 1007.91 1011.99 1010.03 1007.31 1007.39 1006.71 1009.07 1012.95 1011.99 1005.87 1004.31 1004.27 1004.67 1004.59 1004.59 1004.39 1004.27 1004.91 1004.95 1005.51 1005.63 1005.67 1005.43 1005.59 1005.63 1006.23 1006.19 1006.27 1006.43 1006.51 1006.67 1006.79 1007.03 1007.43 1007.87 1008.27 1008.63 1008.99 1009.43 1009.79 1010.11 1010.51 1010.95 1011.35 1011.83 1012.19 1012.19 1012.51 1012.71 1012.91 1013.07
1000.63 999.71 999.15 999.07 999.07 1000.11 1001.99 1001.87 1001.55 1002.67 1004.95 1004.75 1006.03 1006.67 1006.67 1008.83 1008.35 1009.15 1009.83 1012.55 1011.43 1006.19 1004.87 1004.27 1004.39 1004.35 1004.15 1004.23 1004.39 1005.23 1005.67 1005.31 1005.07 1005.03 1005.63 1005.63 1005.83 1005.87 1005.91 1005.87 1005.99 1006.19 1006.43 1006.67 1007.11 1007.67 1007.95 1008.31 1008.63 1008.83 1009.07 1009.35 1009.71 1010.07 1010.43 1010.87 1011.39 1011.67 1011.87 1012.11 1012.39 1012.63 1012.75
1004.95 1003.59 1001.79 1001.99 1000.07 1000.51 1002.51 1003.31 1002.27 1001.87 1002.23 1002.75 1003.23 1003.99 1004.91 1008.11 1008.31 1007.99 1010.07 1015.15 1012.39 1007.15 1004.83 1004.19 1004.19 1004.31 1004.47 1004.19 1003.87 1004.31 1005.23 1005.07 1004.91 1004.75 1004.79 1005.19 1005.59 1005.75 1005.95 1005.99 1005.99 1006.11 1006.47 1006.91 1007.19 1007.31 1007.59 1007.79 1008.03 1008.39 1008.75 1008.99 1009.31 1009.71 1009.99 1010.43 1010.75 1010.99 1011.35 1011.67 1012.07 1012.27 1012.43
1010.47 1010.43 1009.91 1008.51 1006.55 1004.23 1002.47 1001.87 1002.27 1002.07 1002.71 1003.43 1004.51 1007.23 1007.47 1009.63 1008.07 1007.15 1009.83 1012.27 1009.15 1006.47 1005.11 1004.71 1004.55 1004.71 1004.91 1004.51 1004.07 1003.75 1004.31 1004.39 1004.75 1004.71 1004.75 1004.71 1005.27 1005.67 1005.75 1005.75 1005.79 1006.15 1006.35 1006.51 1006.75 1006.99 1007.19 1007.51 1007.79 1008.11 1008.35 1008.59 1008.87 1009.23 1009.51 1009.67 1010.27 1010.67 1011.07 1011.35 1011.67 1011.99 1012.23
1006.63 1005.47 1003.63 1001.43 1001.15 1002.91 1004.59 1003.35 1002.75 1002.71 1002.27 1002.23 1003.07 1004.35 1007.11 1009.19 1007.99 1007.91 1008.47 1008.99 1009.79 1008.11 1006.63 1005.87 1005.15 1004.59 1005.07 1005.23 1004.59 1004.71 1004.91 1004.67 1004.31 1004.35 1004.87 1004.91 1005.03 1005.03 1005.15 1005.39 1005.51 1005.75 1006.35 1006.59 1006.51 1006.59 1006.79 1007.11 1007.43 1007.75 1007.99 1008.19 1008.47 1008.83 1009.15 1009.27 1009.71 1010.31 1010.79 1011.11 1011.47 1011.83 1012.11
1001.95 1001.83 1002.15 1000.95 1000.43 1003.03 1002.83 1003.23 1003.43 1002.55 1002.79 1002.75 1003.99 1006.11 1007.31 1005.15 1007.51 1009.35 1008.55 1007.15 1008.79 1008.11 1006.35 1005.71 1005.23 1004.35 1004.23 1004.07 1004.03 1004.31 1004.15 1004.19 1004.43 1004.79 1005.07 1005.03 1005.11 1005.03 1004.99 1005.35 1005.59 1005.95 1006.03 1006.19 1006.43 1006.59 1006.75 1006.99 1007.11 1007.39 1007.51 1007.63 1007.91 1008.31 1008.67 1008.91 1009.35 1009.87 1010.31 1010.75 1011.31 1011.75 1012.07
1001.15 1000.79 1000.83 1000.39 1001.07 1001.23 1001.67 1002.03 1002.27 1003.07 1002.51 1002.95 1004.51 1004.91 1004.03 1004.55 1007.31 1008.43 1007.87 1006.83 1007.31 1006.71 1005.59 1004.67 1004.59 1003.95 1003.91 1003.83 1004.35 1004.11 1003.79 1003.79 1004.03 1004.27 1005.11 1005.43 1005.35 1005.43 1005.39 1005.43 1005.27 1005.63 1006.03 1006.15 1006.27 1006.47 1006.63 1006.83 1007.19 1007.23 1007.31 1007.51 1007.75 1008.07 1008.27 1008.55 1008.87 1009.27 1009.67 1010.43 1011.19 1011.59 1011.75
1000.79 1000.27 1000.23 1000.27 1001.23 1001.43 1001.59 1001.99 1002.03 1001.79 1002.11 1002.51 1002.59 1002.99 1002.87 1003.99 1004.91 1004.63 1006.23 1006.79 1005.95 1005.11 1004.71 1003.79 1002.83 1002.47 1003.03 1003.19 1002.67 1003.03 1003.43 1003.83 1003.75 1004.15 1004.75 1005.31 1005.55 1005.55 1005.39 1005.39 1005.43 1005.27 1005.31 1005.55 1005.83 1006.11 1006.51 1006.75 1006.95 1007.03 1007.03 1007.23 1007.55 1007.91 1008.15 1008.31 1008.59 1008.99 1009.51 1010.39 1011.03 1011.43 1011.71
1002.39 1001.03 1000.23 1000.19 1000.79 1001.55 1002.87 1002.03 1001.75 1001.67 1001.71 1001.83 1001.75 1002.03 1001.99 1002.11 1003.27 1003.63 1005.35 1006.67 1006.47 1003.59 1001.91 1002.27 1002.15 1002.19 1002.23 1002.55 1003.15 1003.35 1003.55 1003.55 1003.75 1004.11 1004.39 1004.55 1005.15 1005.31 1005.27 1005.15 1005.19 1005.11 1005.07 1005.11 1005.47 1005.91 1006.23 1006.39 1006.47 1006.43 1006.55 1006.79 1007.19 1007.47 1007.79 1008.19 1008.63 1009.07 1009.51 1010.43 1010.87 1011.19 1011.55
1003.71 1001.75 1001.71 1000.95 1000.91 1001.43 1002.55 1002.91 1002.51 1002.27 1002.39 1003.51 1002.47 1002.95 1001.91 1003.07 1003.91 1003.15 1004.87 1006.83 1006.55 1003.35 1002.19 1002.55 1002.67 1002.83 1003.03 1003.63 1003.47 1003.51 1003.59 1003.51 1003.83 1004.31 1004.47 1004.59 1004.59 1004.71 1005.03 1005.07 1004.99 1005.15 1005.23 1005.31 1005.47 1005.63 1005.79 1005.83 1005.95 1006.03 1006.39 1006.79 1007.15 1008.07 1008.63 1009.19 1009.43 1009.55 1009.83 1010.27 1010.63 1010.91 1010.99
1004.71 1002.39 1001.83 1001.87 1001.59 1002.79 1004.87 1004.47 1002.63 1001.67 1001.83 1001.99 1002.03 1001.55 1001.03 1001.47 1001.27 1004.07 1005.27 1005.95 1003.27 1002.75 1002.39 1003.55 1003.91 1003.63 1003.91 1003.75 1003.87 1003.99 1003.75 1003.59 1003.75 1004.03 1004.15 1004.11 1003.99 1004.11 1004.39 1004.79 1004.95 1004.87 1004.91 1004.91 1004.99 1005.03 1005.15 1005.31 1005.51 1005.63 1006.03 1007.31 1009.15 1010.03 1010.67 1011.07 1010.79 1011.15 1010.59 1010.03 1010.07 1010.39 1010.71
1004.59 1002.71 1002.55 1002.39 1004.75 1008.63 1007.59 1002.43 1000.87 1001.59 1002.91 1002.67 1003.79 1004.15 1003.39 1002.23 1001.75 1002.83 1002.31 1002.55 1002.11 1001.91 1002.43 1003.55 1004.27 1003.59 1003.43 1002.95 1002.67 1002.19 1002.83 1003.31 1003.39 1003.43 1003.51 1003.55 1003.59 1003.59 1003.63 1003.95 1004.23 1004.31 1004.27 1004.31 1004.27 1004.27 1004.43 1004.47 1004.67 1005.43 1006.75 1007.71 1008.03 1007.87 1008.27 1008.59 1008.67 1008.51 1008.83 1009.31 1009.63 1010.31 1010.91
1005.19 1004.15 1004.31 1006.51 1009.15 1008.07 1002.79 1000.03 999.83 1000.07 1000.95 1001.43 1002.43 1002.63 1002.67 1002.27 1002.39 1002.39 1002.87 1003.15 1002.67 1002.47 1002.47 1002.67 1002.83 1002.63 1002.19 1001.75 1002.03 1001.95 1001.79 1002.19 1002.95 1003.43 1003.51 1003.55 1003.51 1003.55 1003.51 1003.55 1003.87 1004.11 1003.99 1003.91 1004.11 1004.31 1004.31 1004.47 1005.55 1006.39 1006.91 1006.91 1007.35 1007.71 1007.83 1008.23 1008.51 1009.15 1009.95 1010.71 1010.79 1010.67 1010.95
1003.75 1005.19 1006.51 1010.51 1008.63 1004.27 1001.55 1000.47 999.79 999.35 1000.07 1001.15 1002.03 1003.39 1002.99 1002.27 1002.03 1002.51 1003.23 1002.83 1002.27 1002.11 1002.15 1001.67 1001.43 1001.55 1001.63 1001.71 1001.79 1001.71 1001.63 1001.63 1002.27 1002.79 1003.11 1003.07 1003.07 1003.23 1003.03 1003.11 1003.07 1003.43 1003.79 1003.83 1004.03 1004.07 1004.19 1004.99 1005.83 1006.03 1006.63 1006.59 1006.99 1007.63 1007.91 1008.59 1009.43 1009.67 1010.35 1011.07 1011.27 1010.87 1010.63
1006.59 1006.23 1006.95 1007.27 1004.19 1003.75 1002.83 1002.75 1001.87 1001.43 1003.07 1003.15 1004.35 1006.99 1004.79 1002.23 1001.91 1001.47 1002.27 1002.11 1001.91 1001.83 1001.91 1002.23 1002.15 1001.79 1001.95 1002.95 1002.91 1001.51 1001.51 1001.59 1001.47 1001.83 1002.27 1002.23 1002.35 1002.31 1002.31 1002.31 1002.51 1002.39 1002.43 1003.03 1003.51 1004.03 1004.43 1004.95 1005.75 1006.35 1006.59 1006.91 1007.51 1008.39 1009.23 1009.87 1010.43 1010.95 1011.51 1011.51 1010.95 1010.31 1010.07
1004.59 1007.03 1008.07 1007.55 1007.71 1009.51 1005.79 1002.27 1000.55 999.39 999.59 1000.03 1001.07 1002.95 1005.03 1002.03 1001.39 1001.15 1001.51 1001.91 1001.67 1001.91 1002.35 1002.11 1001.75 1001.71 1003.67 1005.35 1004.75 1002.55 1001.87 1001.31 1001.83 1001.51 1001.59 1001.55 1001.83 1001.99 1002.23 1002.19 1002.31 1002.35 1002.39 1002.67 1003.35 1003.95 1004.59 1005.27 1005.95 1006.39 1006.67 1007.07 1007.39 1008.23 1008.75 1009.07 1009.87 1010.63 1011.15 1011.27 1010.71 1009.91 1009.75
1005.75 1006.87 1008.71 1009.35 1010.03 1007.63 1004.23 1002.83 1001.03 999.55 999.03 999.95 1000.63 1003.59 1006.71 1003.71 1002.71 1001.35 1001.27 1002.19 1001.87 1001.99 1002.07 1002.11 1001.95 1003.51 1006.07 1006.43 1004.87 1002.75 1001.99 1001.59 1001.27 1001.71 1001.95 1001.87 1002.11 1002.03 1002.15 1002.43 1002.83 1002.79 1002.79 1003.03 1003.55 1004.07 1004.59 1005.71 1006.27 1006.23 1006.71 1007.39 1008.67 1009.19 1008.79 1008.83 1009.43 1009.95 1010.07 1010.15 1009.95 1009.67 1009.43
1006.03 1006.95 1008.55 1009.27 1006.91 1007.11 1003.75 1002.15 1001.71 1000.51 999.27 999.35 1002.39 1008.99 1009.07 1004.27 1002.59 1001.79 1001.63 1002.31 1002.11 1001.99 1001.55 1001.79 1002.63 1004.11 1006.23 1005.63 1004.23 1001.99 1001.71 1001.59 1001.75 1002.03 1002.23 1002.35 1002.35 1002.35 1002.11 1002.15 1002.35 1002.63 1002.71 1003.35 1003.99 1004.43 1004.99 1005.71 1005.75 1006.19 1006.67 1007.15 1007.75 1008.27 1008.75 1009.03 1009.55 1009.59 1009.43 1009.23 1008.83 1008.67 1008.79
1005.71 1006.11 1007.15 1006.47 1005.83 1003.75 1002.91 1002.07 1000.59 1000.19 1000.03 1001.63 1007.11 1010.43 1007.39 1003.27 1002.75 1001.63 1001.71 1002.35 1002.19 1002.11 1002.11 1001.99 1003.91 1003.11 1002.79 1002.83 1002.43 1002.11 1001.83 1002.07 1002.07 1001.63 1001.51 1001.79 1001.83 1002.19 1002.19 1002.27 1002.15 1002.55 1002.83 1003.47 1004.15 1004.43 1004.99 1005.35 1005.67 1006.03 1006.51 1007.23 1007.87 1008.03 1008.39 1008.95 1009.19 1008.83 1008.55 1008.51 1008.39 1008.43 1008.55
1007.03 1006.99 1006.99 1007.11 1005.95 1005.07 1003.35 1001.59 1001.55 1000.55 1002.67 1007.47 1009.03 1005.35 1002.79 1003.07 1003.03 1002.03 1002.11 1002.75 1002.59 1002.31 1002.55 1002.87 1003.27 1002.91 1002.07 1002.03 1001.91 1002.11 1002.19 1002.23 1001.99 1002.23 1002.15 1002.03 1001.95 1001.87 1001.83 1001.95 1002.27 1002.71 1002.95 1003.63 1004.27 1004.67 1004.83 1005.11 1005.39 1005.87 1006.31 1006.99 1007.39 1007.87 1008.27 1008.55 1008.15 1007.91 1008.15 1008.11 1008.03 1008.15 1008.35
1006.39 1007.95 1010.23 1009.59 1010.15 1005.31 1001.91 1002.15 1002.23 1002.11 1005.59 1006.03 1004.15 1003.35 1002.87 1002.55 1003.03 1002.67 1002.79 1002.91 1003.19 1002.67 1003.35 1002.99 1002.79 1002.47 1002.27 1002.27 1002.27 1002.31 1002.35 1002.23 1002.43 1002.35 1002.35 1002.59 1002.63 1002.67 1002.71 1002.95 1002.71 1002.95 1003.99 1004.99 1005.83 1005.47 1005.03 1005.03 1005.31 1005.63 1006.03 1006.67 1007.19 1007.51 1007.87 1007.59 1007.39 1007.47 1007.47 1007.51 1007.59 1007.75 1008.03
1009.19 1009.63 1010.59 1010.31 1006.67 1004.27 1001.95 1002.59 1007.15 1004.99 1003.63 1002.75 1002.99 1003.51 1004.59 1003.35 1002.91 1003.31 1003.31 1003.07 1002.95 1002.75 1002.87 1003.11 1002.95 1002.83 1002.99 1002.83 1002.75 1002.55 1002.51 1002.63 1002.43 1002.51 1002.39 1002.51 1002.67 1002.71 1002.75 1002.91 1003.35 1003.39 1004.47 1005.19 1006.63 1007.71 1006.27 1005.15 1005.23 1005.59 1005.95 1006.55 1006.87 1007.19 1007.19 1006.63 1006.63 1006.63 1006.71 1006.95 1007.27 1007.71 1008.03
1007.31 1008.79 1007.59 1005.47 1003.99 1003.39 1002.71 1002.67 1003.55 1003.35 1002.79 1002.47 1002.87 1003.75 1004.15 1003.95 1003.39 1002.31 1002.95 1003.19 1002.67 1002.55 1002.83 1003.03 1003.11 1003.23 1003.03 1003.11 1002.83 1003.15 1003.03 1002.99 1002.99 1002.79 1002.87 1002.99 1002.91 1003.03 1003.31 1003.75 1003.79 1004.07 1004.71 1005.19 1005.99 1007.79 1007.35 1005.27 1004.99 1005.27 1005.55 1006.03 1006.43 1006.75 1006.39 1005.91 1006.11 1006.43 1006.75 1007.03 1007.43 1007.83 1008.11
1006.47 1005.15 1005.67 1005.59 1005.63 1004.47 1003.51 1002.67 1002.47 1002.99 1003.03 1002.67 1002.87 1003.31 1004.27 1004.23 1003.23 1002.95 1003.55 1003.31 1003.07 1002.95 1002.67 1003.27 1003.35 1003.27 1003.19 1003.15 1003.15 1003.27 1003.27 1003.27 1003.11 1003.35 1003.51 1003.75 1003.87 1004.03 1004.19 1004.43 1004.43 1004.59 1004.83 1004.95 1005.51 1007.59 1007.07 1004.87 1004.51 1004.63 1004.91 1005.15 1005.75 1006.03 1005.75 1005.75 1005.87 1006.15 1006.55 1007.07 1007.51 1007.91 1008.27
1007.75 1009.55 1007.47 1007.03 1006.95 1007.71 1004.79 1003.95 1003.11 1002.79 1002.83 1003.27 1003.27 1003.59 1003.71 1003.67 1003.23 1003.19 1003.15 1003.47 1003.63 1003.59 1003.39 1003.55 1003.71 1003.79 1003.43 1003.47 1003.63 1003.71 1003.75 1003.95 1004.07 1004.11 1004.39 1004.47 1004.27 1004.07 1004.03 1004.11 1004.19 1004.59 1004.51 1005.03 1005.63 1006.95 1007.39 1004.83 1004.11 1004.15 1004.51 1004.79 1005.11 1005.27 1005.51 1005.55 1005.75 1006.07 1006.55 1007.03 1007.47 1007.83 1008.31
1008.11 1009.07 1009.31 1007.51 1006.67 1006.11 1004.87 1004.47 1004.63 1004.51 1004.03 1003.63 1003.39 1003.43 1003.47 1003.47 1003.31 1003.27 1003.35 1003.31 1003.63 1003.39 1003.71 1003.63 1003.67 1003.71 1003.55 1003.75 1003.87 1003.99 1004.19 1004.31 1004.51 1004.59 1004.75 1004.83 1004.59 1004.47 1004.27 1004.31 1004.15 1004.27 1004.19 1004.51 1005.11 1006.59 1007.63 1005.07 1004.11 1004.23 1004.55 1004.87 1004.91 1005.07 1005.27 1005.47 1005.79 1006.19 1006.71 1007.11 1007.51 1007.83 1008.11
1007.43 1007.15 1006.83 1006.71 1006.83 1005.83 1005.23 1004.67 1004.43 1004.23 1004.03 1004.11 1003.99 1003.79 1003.91 1003.91 1003.99 1003.83 1003.51 1003.43 1003.67 1003.67 1003.87 1003.59 1003.79 1004.03 1004.07 1003.87 1003.79 1004.03 1004.55 1004.67 1004.59 1004.59 1004.47 1004.59 1004.63 1004.55 1004.47 1004.47 1004.35 1004.75 1005.07 1005.07 1005.07 1005.99 1007.51 1005.43 1004.31 1004.27 1004.55 1004.63 1004.63 1004.91 1005.15 1005.43 1005.79 1006.27 1006.75 1006.95 1007.23 1007.55 1007.79
1008.59 1008.47 1007.11 1006.47 1009.55 1009.55 1006.87 1005.43 1004.91 1004.67 1004.11 1004.07 1004.31 1004.27 1004.51 1004.43 1004.51 1004.31 1004.35 1004.11 1003.67 1003.63 1003.55 1003.55 1003.83 1004.19 1004.23 1003.95 1003.91 1004.43 1004.67 1004.79 1004.75 1004.67 1004.67 1004.55 1004.47 1004.47 1004.23 1004.15 1004.27 1004.47 1004.79 1005.43 1005.91 1006.07 1007.43 1006.35 1004.75 1004.35 1004.35 1004.51 1004.67 1004.87 1005.07 1005.39 1005.67 1006.27 1006.71 1006.99 1007.27 1007.47 1007.47
1006.99 1006.39 1005.51 1006.03 1007.11 1007.47 1006.31 1005.43 1004.75 1004.39 1004.15 1004.27 1004.83 1005.15 1005.11 1004.91 1004.67 1004.63 1004.79 1004.95 1004.67 1004.39 1003.95 1003.43 1003.71 1003.99 1003.95 1003.95 1003.79 1004.23 1004.19 1004.59 1004.63 1004.47 1004.51 1004.55 1004.67 1004.71 1004.51 1004.55 1004.67 1004.75 1004.95 1005.27 1005.67 1006.79 1008.31 1008.03 1006.95 1006.67 1005.91 1004.83 1004.91 1004.95 1005.15 1005.47 1005.79 1006.23 1006.55 1006.99 1007.23 1007.35 1007.59
1005.31 1004.99 1005.35 1005.19 1005.75 1006.39 1005.91 1004.95 1004.79 1004.87 1004.51 1004.59 1004.91 1004.83 1004.75 1004.79 1004.71 1004.55 1004.59 1004.63 1004.83 1004.63 1004.15 1003.71 1003.27 1003.43 1003.47 1003.39 1003.47 1004.03 1004.15 1004.35 1004.47 1004.39 1004.23 1004.19 1003.99 1004.03 1004.19 1004.51 1004.75 1004.99 1005.27 1005.47 1005.83 1006.15 1006.23 1006.55 1006.47 1005.67 1005.23 1005.31 1005.27 1005.19 1005.27 1005.55 1005.79 1006.19 1006.51 1006.87 1007.27 1007.43 1007.75
1005.99 1004.79 1004.63 1004.67 1004.79 1004.71 1004.31 1004.47 1004.99 1004.79 1004.59 1004.71 1005.07 1005.07 1004.91 1004.79 1004.55 1004.31 1004.51 1004.47 1004.23 1004.23 1004.23 1003.95 1003.27 1002.91 1003.07 1003.03 1003.07 1003.55 1003.75 1004.11 1004.19 1004.27 1004.11 1003.99 1003.83 1003.87 1004.15 1004.43 1004.67 1004.67 1004.75 1004.99 1005.15 1005.39 1005.51 1005.71 1005.39 1005.23 1005.51 1005.67 1005.27 1005.23 1005.39 1005.63 1005.95 1006.31 1006.59 1006.79 1007.15 1007.35 1007.67
Wind_Speed
15 15 10 10 5 6 4 6 6 3 2 4 3 1 6 5 3 4 0 2 1 2 3 2 13 13 17 10 9 11 10 11 13 13 15 14 12 15 14 14 14 16 15 16 16 16 15 16 15 15 14 15 15 13 12 12 12 10 11 11 10 9 8
6 11 9 12 10 5 1 4 6 3 6 3 1 1 1 4 4 3 4 6 3 6 3 3 13 16 12 13 13 17 17 15 16 12 12 12 12 15 16 15 15 18 17 17 16 15 17 17 17 16 15 14 14 13 13 13 12 13 11 10 10 10 9
11 13 11 14 7 13 6 9 8 7 6 11 2 0 3 3 4 2 3 6 6 8 4 4 6 13 9 11 12 11 12 11 9 11 13 13 11 13 14 14 13 15 15 16 16 17 17 16 16 15 14 13 12 11 12 13 14 13 13 10 9 8 9
10 11 11 9 6 4 10 5 7 11 1 5 4 6 3 6 1 0 3 2 2 2 4 10 10 12 11 12 14 13 13 13 11 12 11 12 9 13 14 13 13 14 16 17 18 18 18 17 16 15 15 13 14 13 12 11 9 9 9 8 8 8 8
11 9 8 10 7 5 7 7 4 5 5 5 7 3 5 5 2 2 2 2 5 7 3 7 9 11 10 12 13 9 8 13 15 13 14 13 11 10 13 12 12 14 15 16 16 16 16 15 14 13 14 16 15 13 13 12 13 12 10 9 7 7 8
9 4 11 9 9 8 4 7 5 4 3 1 5 4 2 2 4 3 3 1 4 3 3 5 11 10 10 10 11 7 11 8 6 9 9 10 8 9 12 13 14 13 14 15 15 14 12 13 14 15 14 13 14 14 13 13 12 11 12 9 8 8 7
10 7 15 15 11 8 8 5 4 2 1 0 0 2 5 1 2 4 6 6 2 1 3 6 7 10 10 9 10 8 5 8 12 9 12 10 11 10 12 14 14 14 14 15 15 16 16 17 16 16 14 15 14 15 14 13 13 13 12 10 9 8 8
9 10 10 18 16 14 10 8 8 6 9 5 5 3 7 5 1 2 1 3 2 3 2 9 9 8 9 6 7 6 6 6 10 8 8 11 10 9 10 11 11 12 11 12 11 13 14 14 14 15 14 14 13 14 14 14 15 14 12 11 10 9 9
5 8 4 10 13 11 5 2 3 9 13 11 8 0 2 3 6 7 6 5 2 2 1 7 8 8 8 8 5 7 8 7 7 8 8 8 9 10 10 11 12 11 12 13 14 14 14 15 14 14 14 15 14 14 14 15 14 14 12 11 11 11 10
6 8 7 6 9 9 3 5 7 5 7 12 7 8 0 2 4 5 4 3 4 4 4 7 6 7 6 5 5 5 8 8 7 6 7 8 9 11 12 8 10 11 12 13 14 14 13 13 14 14 14 14 13 14 15 14 14 14 12 11 12 11 10
7 8 4 5 8 4 7 9 8 10 10 5 5 6 3 5 4 6 5 14 6 5 4 6 7 9 8 8 7 7 5 4 7 8 7 8 9 8 11 9 11 10 9 14 15 15 14 14 13 13 14 15 13 14 15 15 13 13 12 12 12 11 10
10 5 1 3 9 6 8 11 13 15 13 10 7 7 9 7 8 7 4 16 14 13 10 9 9 8 6 8 8 9 9 9 7 7 8 8 7 6 7 7 10 13 14 13 14 14 13 13 13 12 12 14 14 15 16 14 14 14 11 13 12 11 10
8 7 6 6 4 9 8 9 15 17 17 13 9 4 3 7 6 7 7 16 16 15 15 13 11 11 10 9 5 5 5 6 6 7 7 8 10 9 9 8 11 11 11 12 13 13 13 13 13 14 13 13 11 12 13 13 15 16 13 13 12 12 11
5 6 9 7 7 2 4 5 4 7 10 11 10 9 5 8 6 7 14 15 14 14 13 13 13 11 10 10 9 7 6 6 5 7 8 9 8 9 10 9 10 12 14 13 13 13 12 14 14 14 14 14 13 14 14 13 14 12 13 14 13 11 9
1 4 10 9 7 6 6 6 9 10 5 5 6 7 11 10 5 4 13 13 11 8 14 12 5 9 9 8 8 8 7 7 7 6 5 5 7 8 8 9 10 11 12 13 12 12 13 14 16 16 15 14 13 14 13 13 13 12 13 13 12 12 9
2 4 8 15 13 10 10 12 10 9 8 8 6 6 2 6 8 7 8 7 4 5 6 6 8 8 11 9 8 6 5 5 4 3 2 2 1 2 9 9 8 8 9 10 12 13 14 14 14 14 13 11 11 6 5 5 6 8 11 12 11 9 9
1 2 8 6 6 9 12 14 12 9 8 4 5 4 5 5 7 7 9 7 4 3 8 10 5 8 6 6 6 8 7 6 6 3 2 0 0 1 4 9 9 9 10 10 12 13 13 14 13 13 11 8 14 17 17 13 12 8 3 9 11 11 9
1 3 9 10 5 3 3 0 3 4 4 5 6 4 6 10 7 2 5 9 7 10 10 10 7 10 8 7 5 7 7 5 2 2 2 2 2 1 2 4 10 11 10 9 11 13 14 15 14 7 15 17 18 18 18 17 17 18 15 10 11 10 9
1 4 7 5 6 4 1 2 7 6 8 7 5 6 4 11 9 11 13 7 7 5 7 10 9 8 7 8 8 5 4 4 5 4 4 4 4 4 4 3 5 8 10 10 6 7 11 10 12 17 15 15 16 15 16 17 14 10 7 6 7 8 9
2 1 1 1 2 3 3 5 4 5 5 5 6 5 5 6 5 4 6 8 12 10 8 5 5 6 5 5 5 6 4 5 5 6 5 4 5 5 6 6 6 6 10 10 10 10 7 13 12 13 14 16 17 16 14 12 7 10 10 6 7 9 11
3 1 2 5 3 7 2 1 1 2 1 2 3 2 2 1 1 4 3 7 7 5 5 6 8 8 8 6 3 3 2 4 5 7 5 6 6 7 7 6 5 4 8 9 10 9 10 12 13 12 12 11 12 11 9 9 9 6 1 9 10 12 13
3 3 2 2 1 5 1 3 2 2 2 2 1 1 2 2 4 4 3 5 6 9 10 10 8 6 9 5 2 3 3 4 4 5 2 1 3 4 4 2 2 3 4 7 12 13 12 12 13 12 12 14 15 13 12 13 13 11 9 11 10 11 11
0 1 1 1 1 1 1 2 5 4 1 3 5 4 4 4 6 6 8 4 3 6 6 5 7 7 5 1 1 4 0 1 4 4 4 6 4 4 5 4 3 3 4 9 12 12 13 14 13 14 15 17 15 13 13 14 13 13 14 13 11 11 11
5 3 2 4 2 2 2 6 6 10 3 2 3 2 3 6 6 4 8 8 4 5 7 7 7 9 4 3 3 2 1 4 7 5 6 6 5 5 4 5 4 4 4 9 11 13 13 14 16 16 17 18 18 14 13 11 12 14 15 12 10 11 10
7 9 3 1 2 1 5 3 5 6 4 6 3 4 3 5 7 10 9 9 8 4 6 5 6 1 3 3 3 6 8 7 4 6 6 6 7 6 4 5 6 5 4 7 12 13 13 16 15 15 14 15 14 14 13 13 15 16 14 10 7 7 7
1 1 4 4 2 2 7 4 9 6 7 3 2 4 3 4 4 11 11 12 8 7 8 7 5 4 7 6 7 8 7 3 3 2 4 4 4 5 4 7 6 4 4 8 12 12 15 17 16 15 15 14 13 12 11 14 16 13 9 8 7 7 7
3 2 1 3 3 5 6 5 6 5 3 4 4 2 4 4 5 10 10 10 9 8 5 5 7 8 10 8 8 5 5 4 3 2 4 4 4 4 4 4 4 6 8 12 5 10 14 15 15 14 14 13 11 10 12 13 10 10 11 10 9 9 8
4 1 1 2 3 5 2 5 5 2 1 3 1 2 4 6 6 6 7 9 8 8 9 10 9 8 7 8 7 6 5 2 3 3 3 6 5 5 5 6 6 10 13 13 4 9 8 13 13 12 12 12 11 11 12 10 11 9 10 9 8 6 6
1 3 1 3 5 1 5 8 8 5 6 7 5 8 6 6 7 6 9 9 9 8 8 7 7 7 7 5 5 5 6 5 2 4 1 3 4 4 4 6 7 8 11 13 8 7 11 11 11 12 12 11 10 10 6 7 8 8 7 7 6 5 5
7 4 9 8 12 12 9 8 7 9 8 8 9 8 8 6 6 9 9 7 8 7 6 5 3 4 3 5 6 7 7 6 5 5 7 7 7 8 7 6 7 8 8 11 10 5 14 12 12 10 10 11 11 8 6 7 8 8 8 7 7 6 7
7 4 9 9 10 14 6 9 10 9 9 8 7 8 7 7 8 9 9 6 5 6 8 7 3 4 4 3 4 4 6 6 5 5 5 5 4 5 7 5 7 6 8 10 9 2 14 5 8 9 9 9 10 9 8 7 7 6 6 6 5 6 7
5 7 7 5 1 5 4 6 6 7 7 8 8 8 6 7 7 7 7 6 7 7 8 6 4 5 5 4 3 4 4 4 3 3 3 4 6 5 6 4 7 8 11 11 9 2 13 4 8 9 10 9 9 8 8 8 7 7 7 7 7 6 8
3 4 4 7 9 3 5 6 6 6 5 7 7 8 8 8 9 8 7 7 6 6 5 6 4 5 4 5 3 2 3 3 3 3 4 3 4 5 6 5 7 7 4 7 9 6 14 6 9 10 8 9 9 9 8 7 7 7 7 6 6 6 6
4 4 4 2 5 5 3 4 5 4 5 5 7 6 7 8 8 9 8 8 7 7 5 5 3 4 3 3 4 4 2 2 3 3 3 4 5 5 5 7 8 8 9 5 3 4 5 10 3 7 8 8 7 6 6 6 7 7 6 6 5 4 4
6 5 5 7 14 8 0 2 4 5 4 4 7 6 5 5 4 5 4 4 5 6 7 6 2 2 1 1 2 4 2 2 3 3 4 5 5 4 4 6 7 8 9 10 11 11 7 11 12 10 5 8 8 7 7 7 8 7 7 6 5 3 4
10 7 5 4 3 3 0 3 6 6 6 6 7 6 5 5 5 4 5 3 4 5 6 6 6 3 4 4 2 5 4 3 3 4 1 2 5 7 6 7 9 10 10 11 11 12 12 10 10 6 6 4 5 7 6 6 6 6 5 5 6 5 7
5 3 3 2 2 0 1 4 8 5 6 7 5 5 5 5 5 4 4 4 4 5 6 8 8 5 4 3 5 7 6 4 3 3 3 3 2 4 9 11 10 11 11 10 10 11 11 11 7 5 7 4 5 6 5 5 5 5 5 4 4 3 4
Wind_Direction
168 198 206 225 190 210 231 104 180 195 227 158 200 223 205 221 268 250 214 322 353 347 278 145 124 134 158 151 146 167 173 162 159 170 178 175 164 169 173 171 167 170 170 173 173 171 171 172 173 174 173 173 173 174 176 174 174 175 176 182 178 170 173
221 193 203 235 217 237 147 161 204 180 259 259 120 214 247 219 190 251 197 237 248 153 269 235 126 132 150 149 163 173 171 161 169 171 173 177 169 172 176 175 166 170 172 174 174 174 174 176 175 173 175 173 173 173 175 174 175 176 181 183 179 168 164
196 178 199 234 252 199 157 188 155 179 182 252 154 197 265 204 213 269 265 210 229 186 224 127 134 130 135 119 138 150 152 145 144 161 176 180 164 167 173 178 167 172 173 175 175 176 178 176 175 173 170 169 169 173 177 179 179 179 179 183 182 165 159
171 173 178 227 225 238 190 185 190 185 179 176 174 182 195 121 200 59 290 307 264 260 207 162 164 140 137 118 123 137 146 151 153 160 164 172 168 173 180 180 174 174 176 176 176 175 176 176 176 172 167 168 172 173 175 177 177 175 177 182 180 168 162
157 197 173 203 192 196 200 205 197 181 217 178 186 190 182 152 170 153 242 342 314 291 281 142 139 133 129 122 125 140 156 165 162 167 170 176 175 166 181 177 179 178 178 178 179 177 176 173 172 168 169 174 173 170 174 176 175 178 180 181 177 171 162
185 203 173 189 199 202 206 181 197 174 221 58 176 277 203 181 124 199 155 201 266 302 16 86 116 123 120 119 122 129 145 167 174 160 164 170 166 168 170 176 178 182 180 182 180 175 171 168 172 175 173 171 171 173 174 173 177 182 180 175 174 173 169
194 192 171 188 207 216 217 187 238 200 198 21 39 135 250 275 203 172 144 121 285 276 79 76 104 112 116 121 126 155 163 128 153 163 176 174 172 171 176 177 181 182 182 183 180 174 174 173 176 174 172 176 175 173 171 175 177 185 180 174 169 170 169
184 201 187 185 194 204 218 201 197 186 241 202 187 176 181 192 146 157 63 103 208 303 341 98 106 120 119 116 120 103 114 136 142 135 147 179 185 183 171 173 177 182 187 182 174 172 172 172 174 176 176 177 174 174 175 174 180 181 176 171 169 169 172
172 206 221 193 189 193 211 203 212 190 200 222 239 293 78 193 201 161 132 136 227 250 205 118 117 113 122 127 135 114 123 135 138 137 132 146 178 187 178 184 188 181 175 176 180 178 179 178 177 175 175 179 175 173 174 179 180 179 174 169 171 174 170
169 185 213 208 193 193 178 245 243 249 208 196 175 246 78 170 252 176 119 141 220 224 172 139 129 110 107 130 145 150 157 161 151 148 141 147 152 169 176 174 197 193 183 181 179 183 184 179 176 177 177 179 176 173 177 178 177 176 172 170 174 174 169
181 205 200 184 141 168 180 195 243 257 259 253 174 155 162 208 219 201 194 150 180 193 211 163 169 160 157 152 158 134 118 124 149 158 155 159 165 168 171 165 182 183 179 189 189 185 182 180 176 175 177 179 177 173 177 178 173 171 169 172 173 171 170
185 194 221 304 177 178 190 182 199 234 250 247 241 173 210 165 118 209 222 154 155 189 190 188 174 176 168 158 165 156 148 154 159 169 165 162 165 170 169 157 168 178 188 190 191 190 185 182 180 180 180 181 178 176 179 175 167 171 172 171 168 167 165
209 211 230 223 212 224 227 206 196 202 225 239 236 169 178 147 157 199 212 172 168 186 187 184 178 171 180 167 133 133 161 148 138 147 161 172 176 177 175 179 180 179 180 190 192 189 187 181 180 185 188 188 181 180 177 171 170 175 167 162 161 167 172
205 239 253 254 256 215 256 301 278 210 206 222 233 241 224 170 180 202 174 188 179 180 188 183 187 176 148 140 140 139 139 153 154 140 153 166 182 183 188 186 187 188 186 186 188 184 181 181 184 188 191 187 182 182 180 174 172 165 155 156 161 169 169
337 282 266 262 248 261 277 279 278 272 251 256 233 227 234 246 243 170 167 189 209 217 178 180 156 138 134 130 138 147 144 138 135 134 148 158 169 196 208 203 194 192 191 187 181 179 181 183 187 192 191 184 180 181 175 171 162 154 146 150 157 166 158
317 306 265 223 226 246 256 256 241 240 243 236 245 257 212 213 221 216 141 183 175 178 169 119 127 119 122 129 140 141 138 122 114 115 105 96 111 156 201 212 210 198 190 184 183 185 184 185 189 192 187 177 173 148 119 101 106 115 133 144 149 151 161
265 280 300 293 227 210 224 237 247 266 279 314 341 317 288 265 234 155 165 185 189 163 123 117 132 120 113 106 97 92 98 107 115 122 123 176 229 248 174 193 200 207 202 194 188 189 185 187 191 188 171 112 68 61 57 56 69 76 135 159 154 160 166
138 265 278 289 307 247 228 221 55 46 353 16 350 1 2 13 350 202 142 133 130 108 92 106 115 102 123 131 151 144 138 127 126 143 177 192 208 288 294 184 196 199 205 203 198 190 186 189 186 135 100 111 122 126 135 147 155 169 176 162 155 163 172
161 11 30 7 264 246 251 13 28 25 26 11 340 333 30 49 45 70 75 58 66 80 109 125 139 147 152 136 138 135 132 133 150 173 182 190 184 205 225 245 199 202 200 202 178 156 178 169 112 113 129 127 131 139 148 159 165 145 102 127 188 176 176
54 30 68 155 238 255 325 346 339 16 29 36 22 351 37 53 69 96 102 127 123 121 124 134 137 131 114 84 92 120 144 143 162 162 185 202 202 209 212 219 233 192 202 197 172 174 135 112 127 129 137 144 143 150 156 149 136 134 140 182 202 181 180
178 159 160 220 335 320 33 29 8 62 274 67 90 355 288 45 107 93 148 139 133 128 117 91 74 82 71 63 4 342 328 251 200 180 186 196 207 213 214 195 212 209 193 186 160 141 135 129 127 131 132 128 116 108 89 61 53 65 222 224 212 190 197
3 86 12 352 323 259 303 237 204 214 249 328 136 86 305 348 40 90 133 133 124 118 110 108 107 76 61 48 360 343 3 100 113 108 111 72 93 124 123 102 95 90 102 132 142 144 140 128 119 122 120 125 127 118 132 140 154 180 218 244 225 209 203
269 208 232 209 250 261 297 292 310 222 113 72 65 20 311 312 6 29 80 45 72 110 110 114 87 74 82 113 72 303 49 75 138 140 82 56 86 97 107 108 105 77 93 130 143 140 138 123 130 131 128 113 112 165 173 168 174 189 206 226 215 209 207
168 149 214 253 199 245 292 12 3 358 311 112 86 304 283 293 330 340 55 65 73 102 115 111 89 109 125 168 180 270 75 30 60 98 106 101 96 96 86 87 110 116 99 106 132 141 134 134 140 138 137 147 163 170 176 177 188 203 214 223 214 208 201
169 170 226 226 301 350 324 360 4 11 11 70 122 201 250 294 344 37 60 56 64 51 72 76 94 88 134 163 117 51 31 41 104 130 148 147 142 142 144 131 125 104 120 122 146 141 137 142 147 147 145 148 167 179 177 185 203 211 215 221 207 190 177
270 298 194 210 112 279 300 314 36 30 16 287 196 224 226 282 354 60 59 48 33 56 64 62 67 72 53 41 40 32 25 29 195 97 106 105 94 78 90 135 126 116 114 113 137 137 146 152 150 152 155 166 176 176 179 197 209 209 214 209 190 177 177
340 101 216 6 288 278 312 338 358 17 121 220 219 319 346 15 51 62 52 51 31 40 55 58 50 39 38 32 18 23 41 85 82 96 114 88 81 80 86 74 60 80 60 44 48 150 155 151 155 163 163 167 171 176 191 205 203 204 205 195 190 186 183
134 108 107 199 213 259 343 94 119 299 147 183 339 5 23 347 40 71 62 46 41 37 37 26 29 34 38 26 17 13 25 56 87 89 105 104 96 89 98 101 83 89 92 102 88 305 202 164 160 161 164 169 174 180 197 200 189 179 175 178 171 168 173
77 187 149 335 302 256 78 87 111 98 60 63 91 70 29 27 16 29 51 36 31 29 40 34 27 19 7 10 5 13 345 7 291 200 165 109 127 121 103 73 77 80 102 109 96 286 250 175 158 163 173 165 165 158 172 132 117 115 112 112 112 114 115
329 45 55 17 356 6 48 59 65 71 62 53 55 67 72 16 35 44 43 18 18 9 27 29 25 5 1 345 10 22 25 13 16 75 71 71 72 71 67 60 66 90 97 98 104 256 248 178 159 156 150 143 133 148 143 121 122 120 120 117 120 120 110
50 336 329 39 29 325 331 58 57 56 59 52 51 56 53 47 37 45 48 29 21 23 17 9 21 19 351 25 58 66 49 48 52 62 69 70 77 93 99 120 116 104 104 108 112 237 269 198 139 129 124 125 130 134 130 129 125 123 115 124 124 121 120
136 165 251 314 168 224 29 41 46 51 46 46 45 49 42 42 37 43 44 29 33 20 18 5 31 29 28 30 45 86 93 101 83 81 78 87 89 89 100 99 111 126 132 128 113 88 272 221 128 123 127 134 138 137 136 137 134 130 132 132 139 144 145
141 89 5 356 324 359 42 44 54 45 53 59 46 44 37 31 37 27 28 38 23 17 7 1 35 59 12 356 336 112 109 102 119 132 142 131 115 123 104 96 93 90 82 111 120 118 278 245 135 130 136 144 144 147 147 136 134 130 133 132 134 147 149
120 164 198 97 54 315 342 22 52 54 42 67 68 54 43 30 31 26 15 13 356 357 354 357 38 81 34 2 54 80 97 140 151 158 144 154 136 131 136 127 122 119 123 124 109 112 278 301 93 111 100 98 98 94 104 123 129 128 135 139 139 140 147
194 181 165 148 160 194 245 26 31 60 48 55 75 64 50 30 29 49 18 5 345 340 327 311 340 146 131 60 147 141 161 178 190 202 173 151 128 110 107 105 111 113 102 97 89 68 21 337 3 23 30 91 106 108 103 112 123 131 131 133 132 123 102
80 86 89 94 122 135 254 8 41 43 26 38 43 44 43 22 356 21 355 350 339 308 308 305 296 240 168 180 141 138 152 157 164 189 179 132 146 147 146 128 129 121 127 137 142 147 156 182 206 184 122 109 124 112 110 109 111 118 123 125 132 124 125
118 130 121 115 131 49 332 75 63 40 36 35 35 26 12 351 331 350 321 318 302 296 295 296 298 277 188 177 160 159 164 167 162 157 179 213 161 118 125 131 143 158 163 164 159 165 173 193 178 138 113 111 111 112 108 104 105 108 116 119 126 151 134